FLOCK 2K-14 (42892 NORAD) Tracking and Keplerian Element Data

This shows tracking and keplerian element data for the satellite.

Feedback or suggestion? Click here.




ElementValue
Catalog42892
NameFLOCK 2K-14
Epoch Orbit14622
Epoch Day53.08887153
Epoch Year2020
RAAN287.853
Inclination96.9089
Eccentricity0.0011619
Argument of Perigee30.9321
Mean Anonmoly329.261
Mean Motion15.41987713
Decay Rate6.366E-05
L11 42892U 17042BV 20053.08887153 .00006366 00000-0 15095-3 0 9993
L22 42892 96.9089 287.8530 0011619 30.9321 329.2610 15.41987713146221

Live tracking and technical data element details for FLOCK 2K-14 (NORAD 42892). FLOCK 2K-14 can be tracked NOW for your location showing map with azimuth and elevation plus other details from your city location.

Track the satellite on the map from your city or location and see movement details for azimuth, elevation, latitude, longitude, range, height, and movement on the map or in text.







IsCatalogInMostPopularTable: catalog: 42892, numindb: 391
Update: records affected: 1



GetName: 42892 FLOCK 2K-14

Hit Count: updated at: Sun, 23 Feb 2020 08:01:32 GMT